Location: Newark
(41.0400°S, 62.7845°W)
Time: 01:38:22
(UTC+00:00)

Transit 2A - Pass Details

Date: 06 December 2021
Orbit: 591 x 967 km, 66.7° (Epoch: 20 January)

Event Time Altitude Azimuth Distance (km) Brightness Sun altitude
Rises 15:04:38 0° 344° (NNW) 3,237 9.4 67.9°
Reaches altitude 10° 15:07:10 10° 348° (NNW) 2,256 8.8 68.2°
Maximum altitude 15:12:08 54° 64° (ENE) 848 7.9 68.7°
Drops below altitude 10° 15:16:41 10° 141° (SE) 2,073 8.3 69.2°
Sets 15:18:56 0° 145° (SE) 2,950 8.9 69.4°
